GW7336 Weather Reports


Display with metric or nautical units.
time (UTC)temp
F
wind
direction
speed
MPH
gust
MPH
rain 1hr
in
rain 24hr
in
rain mn
in
humidity
%
barometer
mb
20260507090505 45 198 0.0 0.0 0.00 0.25 0.01 9 1007.5
20260507090028 45 198 0.0 0.0 0.00 0.25 0.01 10 1007.4
20260507085503 45 190 0.0 0.0 0.00 0.25 0.01 9 1007.6
20260507085004 45 189 0.0 0.0 0.00 0.25 0.01 7 1007.8
20260507084516 45 189 0.0 0.0 0.00 0.25 0.01 7 1007.5
20260507084013 45 189 0.0 0.0 0.00 0.25 0.01 8 1007.3
20260507083504 45 189 0.0 0.0 0.00 0.25 0.01 9 1007.1
20260507083026 45 189 0.0 0.0 0.00 0.25 0.01 11 1007.0
20260507082504 45 189 0.0 0.0 0.00 0.25 0.01 11 1007.1
20260507082004 45 186 0.0 0.0 0.00 0.25 0.01 11 1006.7
20260507081512 45 277 0.0 0.0 0.00 0.25 0.01 10 1007.0
20260507081003 45 277 0.0 0.0 0.00 0.25 0.01 10 1007.0
20260507080507 45 281 0.0 0.0 0.00 0.25 0.01 11 1006.9
20260507080004 45 281 0.0 0.0 0.00 0.25 0.01 12 1006.7
20260507075504 45 281 0.0 0.0 0.00 0.25 0.01 12 1006.7
20260507075007 45 135 0.0 0.0 0.00 0.25 0.01 16 1006.7
20260507074508 45 120 0.0 0.0 0.00 0.25 0.01 18 1006.9
20260507074003 45 282 0.0 0.0 0.00 0.25 0.01 17 1007.1
20260507073505 45 281 0.0 0.0 0.01 0.25 0.01 15 1007.0
20260507073020 46 283 0.0 0.0 0.01 0.25 0.01 10 1007.1
20260507072504 46 283 0.0 0.0 0.01 0.25 0.01 12 1006.8
20260507072006 46 283 0.0 0.0 0.01 0.25 0.01 11 1006.7
20260507071516 46 283 0.0 0.0 0.01 0.25 0.01 10 1006.6
20260507071014 46 287 0.0 0.0 0.01 0.25 0.01 8 1006.4
20260507070503 46 238 0.0 0.0 0.01 0.25 0.01 4 1006.5
20260507070016 46 267 0.0 0.0 0.01 0.25 0.01 6 1006.6
20260507065512 46 250 0.0 0.0 0.01 0.25 0.01 10 1006.8
20260507065005 46 250 0.0 0.0 0.01 0.25 0.01 10 1006.8
20260507064511 46 63 0.0 3.0 0.01 0.25 0.01 9 1006.4
20260507064004 46 63 0.0 3.0 0.01 0.25 0.01 9 1006.6
20260507063507 47 295 0.0 0.0 0.00 0.24 0.00 100 1006.6
20260507063009 47 333 0.0 0.0 0.00 0.24 0.00 2 1006.5
20260507062507 47 333 0.0 0.0 0.00 0.24 0.00 1 1006.6
20260507062006 47 278 0.0 1.0 0.00 0.24 0.00 100 1006.7
20260507061505 47 184 0.0 1.0 0.00 0.24 0.00 100 1006.6
20260507061003 47 250 0.0 1.0 0.00 0.24 0.00 100 1006.8
20260507060504 47 84 0.0 0.0 0.00 0.24 0.00 100 1006.8
20260507060024 48 84 0.0 0.0 0.00 0.24 0.00 100 1006.6
20260507055503 47 84 0.0 0.0 0.00 0.24 0.00 100 1006.9
20260507055008 47 84 0.0 0.0 0.00 0.24 0.00 100 1006.6
20260507054520 47 84 0.0 0.0 0.00 0.24 0.00 100 1006.9
20260507054004 48 88 0.0 0.0 0.00 0.24 0.00 100 1007.0
20260507053504 48 275 0.0 0.0 0.00 0.24 0.00 100 1007.1
20260507053017 48 275 0.0 0.0 0.00 0.24 0.00 100 1007.0
20260507052507 48 275 0.0 0.0 0.00 0.24 0.00 100 1006.9
20260507052004 48 275 0.0 0.0 0.00 0.24 0.00 100 1007.0
20260507051514 48 275 0.0 0.0 0.00 0.24 0.00 100 1006.9
20260507051010 48 257 0.0 0.0 0.00 0.24 0.00 100 1007.0
20260507050510 48 249 0.0 0.0 0.00 0.24 0.00 100 1007.0
20260507050012 48 235 0.0 0.0 0.00 0.24 0.00 100 1006.9
20260507045505 48 235 0.0 0.0 0.00 0.24 0.00 100 1006.8
20260507045007 48 234 0.0 0.0 0.00 0.24 0.00 100 1006.7
20260507044507 48 236 0.0 0.0 0.00 0.24 0.00 100 1006.7
20260507044008 48 236 0.0 0.0 0.00 0.24 0.00 100 1006.5
20260507043507 48 236 0.0 0.0 0.00 0.24 0.00 100 1006.6
20260507043033 49 165 0.0 0.0 0.00 0.24 0.00 100 1006.6
20260507042504 49 169 0.0 1.0 0.00 0.24 0.00 100 1006.5
20260507042004 49 169 0.0 1.0 0.00 0.24 0.00 100 1006.7
20260507041524 49 161 0.0 0.0 0.00 0.24 0.00 100 1007.1
20260507041003 49 161 0.0 0.0 0.00 0.24 0.00 100 1007.2
20260507040506 49 161 0.0 0.0 0.00 0.24 0.00 100 1007.1
20260507040019 49 173 0.0 0.0 0.00 0.24 0.00 100 1007.1
20260507035506 50 103 0.0 0.0 0.00 0.24 0.24 100 1006.7
20260507035004 50 103 0.0 0.0 0.00 0.24 0.24 100 1006.7
20260507034519 50 103 0.0 0.0 0.00 0.24 0.24 100 1006.6
20260507034007 50 98 0.0 0.0 0.02 0.24 0.24 100 1006.7
20260507033510 50 98 0.0 0.0 0.04 0.24 0.24 100 1006.5
20260507033009 50 98 0.0 0.0 0.04 0.24 0.24 100 1006.5
20260507032507 50 98 0.0 0.0 0.04 0.24 0.24 100 1006.6
20260507032009 51 288 0.0 1.0 0.04 0.24 0.24 100 1006.5
20260507031508 51 288 0.0 1.0 0.04 0.24 0.24 100 1006.5
20260507031007 51 30 0.0 4.0 0.04 0.24 0.24 100 1006.2
20260507030507 51 54 0.0 4.0 0.05 0.24 0.24 100 1006.2
20260507030025 52 257 0.0 2.0 0.05 0.24 0.24 100 1006.4
20260507025504 52 67 0.0 0.0 0.05 0.24 0.24 100 1006.2
20260507025007 53 67 0.0 0.0 0.05 0.24 0.24 100 1006.1
20260507024525 53 9 0.0 1.0 0.05 0.24 0.24 100 1006.5
20260507024003 54 293 0.0 1.0 0.03 0.22 0.22 100 1006.6
20260507023504 54 224 0.0 0.0 0.02 0.20 0.20 100 1006.7
20260507023020 54 224 0.0 0.0 0.02 0.20 0.20 100 1006.6
20260507022508 55 221 0.0 0.0 0.02 0.20 0.20 100 1006.5
20260507022005 55 257 0.0 1.0 0.03 0.20 0.20 100 1006.1
20260507021517 55 257 0.0 1.0 0.04 0.20 0.20 100 1005.9
20260507021010 55 292 0.0 0.0 0.04 0.20 0.20 100 1005.6
20260507020507 55 292 0.0 0.0 0.06 0.19 0.19 100 1005.6
20260507020015 56 292 0.0 0.0 0.07 0.19 0.19 100 1005.6
20260507015508 56 163 0.0 0.0 0.08 0.19 0.19 100 1005.5
20260507015006 56 113 0.0 0.0 0.08 0.19 0.19 100 1005.4
20260507014513 56 113 0.0 0.0 0.08 0.19 0.19 100 1005.5
20260507014009 57 113 0.0 0.0 0.08 0.19 0.19 100 1005.4
20260507013506 57 111 0.0 0.0 0.07 0.18 0.18 100 1005.3
20260507013034 57 13 0.0 4.0 0.07 0.18 0.18 100 1005.3
20260507012506 58 22 0.0 4.0 0.07 0.18 0.18 100 1005.2
20260507012012 58 330 0.0 1.0 0.06 0.17 0.17 100 1005.1
20260507011535 58 65 0.0 3.0 0.05 0.16 0.16 100 1004.9
20260507011004 58 35 0.0 5.0 0.05 0.16 0.16 100 1004.9
20260507010508 58 148 0.0 5.0 0.02 0.13 0.13 100 1004.8
20260507010022 58 109 0.0 1.0 0.01 0.12 0.12 100 1004.9
20260507005515 58 322 0.0 1.0 0.00 0.11 0.11 100 1004.9
20260507005007 58 306 0.0 4.0 0.00 0.11 0.11 100 1004.8
20260507004519 58 137 0.0 4.0 0.00 0.11 0.11 100 1004.7
20260507004007 58 132 0.0 1.0 0.00 0.11 0.11 100 1004.8
20260507003510 58 146 0.0 1.0 0.00 0.11 0.11 100 1004.7
20260507003019 58 143 0.0 1.0 0.00 0.11 0.11 100 1004.6
20260507002510 58 256 0.0 1.0 0.00 0.11 0.11 100 1004.5
20260507002011 58 73 0.0 3.0 0.00 0.11 0.11 100 1004.5
20260507001514 58 115 0.0 8.0 0.00 0.11 0.11 100 1004.6
20260507001009 58 167 0.0 8.0 0.00 0.11 0.11 100 1004.6
20260507000514 58 101 0.0 2.0 0.00 0.11 0.11 100 1004.6
20260507000028 58 150 0.0 1.0 0.00 0.11 0.11 100 1004.5
20260506235508 58 151 0.0 1.0 0.00 0.11 0.11 100 1004.5
20260506235009 58 103 0.0 1.0 0.00 0.11 0.11 100 1004.4
20260506234508 58 156 0.0 1.0 0.00 0.11 0.11 100 1004.4
20260506234002 58 74 0.0 0.0 0.00 0.11 0.11 100 1004.4
20260506233503 58 74 0.0 3.0 0.00 0.11 0.11 100 1004.2
20260506233003 58 60 0.0 3.0 0.00 0.11 0.11 100 1004.2
20260506232502 58 151 0.0 1.0 0.00 0.11 0.11 100 1004.3
20260506232004 58 54 0.0 3.0 0.00 0.11 0.11 100 1004.3
20260506231503 59 55 0.0 3.0 0.00 0.11 0.11 100 1004.4
20260506231002 59 106 0.0 2.0 0.00 0.11 0.11 100 1004.5
20260506230504 59 32 0.0 1.0 0.00 0.11 0.11 100 1004.4
20260506230003 59 68 0.0 0.0 0.00 0.11 0.11 100 1004.5
20260506225502 59 124 0.0 0.0 0.00 0.11 0.11 100 1004.4
20260506225003 59 86 0.0 7.0 0.00 0.11 0.11 100 1004.4
20260506224504 59 285 0.0 7.0 0.00 0.11 0.11 100 1004.5
20260506224002 59 95 0.0 4.0 0.00 0.11 0.11 100 1004.5
20260506223502 59 105 0.0 4.0 0.00 0.11 0.11 100 1004.5
20260506223003 59 159 0.0 1.0 0.00 0.11 0.11 100 1004.5
20260506222502 59 286 0.0 2.0 0.00 0.11 0.11 100 1004.5
20260506222004 59 143 0.0 4.0 0.00 0.11 0.11 100 1004.5
20260506221504 59 139 0.0 9.0 0.00 0.11 0.11 100 1004.5
20260506221003 59 124 0.0 9.0 0.00 0.11 0.11 100 1004.5
20260506220502 59 143 0.0 9.0 0.00 0.11 0.11 100 1004.6
20260506220004 59 114 0.0 7.0 0.00 0.11 0.11 100 1004.7
20260506215504 59 80 0.0 1.0 0.00 0.11 0.11 100 1004.6
20260506215003 59 36 0.0 7.0 0.00 0.11 0.11 100 1004.6
20260506214505 59 42 0.0 7.0 0.00 0.11 0.11 100 1004.6
20260506214004 59 127 0.0 1.0 0.00 0.11 0.11 100 1004.6
20260506213502 59 175 0.0 6.0 0.00 0.11 0.11 100 1004.6
20260506213003 59 129 0.0 6.0 0.01 0.11 0.11 100 1004.7
20260506212505 59 111 0.0 3.0 0.01 0.11 0.11 100 1004.7
20260506212003 59 268 0.0 2.0 0.01 0.11 0.11 100 1004.7
20260506211502 59 130 0.0 4.0 0.01 0.11 0.11 100 1004.7
20260506211003 59 52 0.0 4.0 0.01 0.11 0.11 100 1004.7
20260506210503 59 148 0.0 1.0 0.01 0.11 0.11 100 1004.7
20260506210004 59 24 0.0 1.0 0.02 0.11 0.11 100 1004.7
20260506205503 59 115 0.0 3.0 0.02 0.11 0.11 100 1004.8
20260506205003 60 269 0.0 3.0 0.02 0.11 0.11 100 1004.8
20260506204505 60 118 0.0 0.0 0.03 0.11 0.11 100 1004.9
20260506204003 60 119 0.0 0.0 0.03 0.11 0.11 100 1004.9
20260506203503 60 93 0.0 0.0 0.03 0.11 0.11 100 1005.0
20260506203004 60 89 0.0 1.0 0.03 0.10 0.10 100 1004.9
20260506202503 60 182 0.0 1.0 0.04 0.10 0.10 100 1005.0
20260506202003 60 96 0.0 4.0 0.04 0.10 0.10 100 1005.0
20260506201504 60 96 0.0 4.0 0.04 0.10 0.10 100 1005.1
20260506201004 60 144 0.0 4.0 0.04 0.10 0.10 100 1005.3
20260506200504 60 141 0.0 0.0 0.04 0.10 0.10 100 1005.3
20260506200006 60 122 0.0 0.0 0.03 0.09 0.09 100 1005.4
20260506195502 60 199 0.0 0.0 0.03 0.09 0.09 100 1005.4
20260506195004 60 199 0.0 0.0 0.03 0.09 0.09 100 1005.4
20260506194504 60 203 0.0 1.0 0.02 0.08 0.08 100 1005.4
20260506194003 60 63 0.0 1.0 0.03 0.08 0.08 100 1005.5
20260506193503 60 57 0.0 4.0 0.03 0.08 0.08 100 1005.6
20260506193005 61 115 0.0 4.0 0.02 0.07 0.07 100 1005.6
20260506192503 61 86 0.0 0.0 0.02 0.06 0.06 100 1005.6
20260506192003 61 124 0.0 2.0 0.02 0.06 0.06 100 1005.8
20260506191504 61 98 0.0 2.0 0.02 0.06 0.06 100 1005.7
20260506191003 61 122 0.0 1.0 0.02 0.06 0.06 100 1005.6
20260506190505 61 237 0.0 0.0 0.02 0.06 0.06 100 1005.6
20260506190004 62 93 0.0 0.0 0.02 0.06 0.06 100 1005.5
20260506185501 61 93 0.0 0.0 0.02 0.06 0.06 100 1005.4
20260506185002 61 93 0.0 0.0 0.03 0.06 0.06 100 1005.4
20260506184505 61 93 0.0 0.0 0.04 0.06 0.06 100 1005.6
20260506184003 61 93 0.0 0.0 0.03 0.05 0.05 100 1005.7
20260506183503 61 93 0.0 0.0 0.04 0.05 0.05 100 1006.0
20260506183006 61 74 0.0 0.0 0.05 0.05 0.05 100 1006.2
20260506182503 61 74 0.0 0.0 0.04 0.04 0.04 100 1006.1
20260506182005 61 74 0.0 0.0 0.04 0.04 0.04 100 1006.4
20260506181505 61 74 0.0 0.0 0.04 0.04 0.04 100 1006.6
20260506181003 61 100 0.0 0.0 0.04 0.04 0.04 100 1006.7
20260506180503 61 101 0.0 0.0 0.04 0.04 0.04 100 1006.6
20260506180007 61 114 0.0 0.0 0.04 0.04 0.04 100 1006.5
20260506175503 61 114 0.0 0.0 0.04 0.04 0.04 100 1006.6
20260506175003 61 116 0.0 0.0 0.03 0.03 0.03 100 1006.8
20260506174504 61 117 0.0 0.0 0.02 0.02 0.02 100 1006.9
20260506174003 61 193 0.0 0.0 0.02 0.02 0.02 100 1007.0
20260506173504 61 24 0.0 0.0 0.01 0.01 0.01 3 1007.1
20260506173006 61 110 0.0 0.0 0.00 0.00 0.00 7 1007.0
20260506172502 62 43 0.0 0.0 0.00 0.00 0.00 15 1007.1
20260506172003 62 271 0.0 0.0 0.00 0.00 0.00 22 1007.2
20260506171514 62 164 0.0 0.0 0.00 0.00 0.00 35 1007.0
20260506171002 63 312 0.0 0.0 0.00 0.00 0.00 37 1006.9
20260506170504 63 313 0.0 8.0 0.00 0.00 0.00 47 1006.9
20260506170007 63 99 0.0 8.0 0.00 0.00 0.00 52 1007.0
20260506165507 64 105 0.0 9.0 0.00 0.00 0.00 56 1006.9
20260506165005 64 300 0.0 9.0 0.00 0.00 0.00 59 1006.9
20260506164510 64 82 0.0 7.0 0.00 0.00 0.00 60 1006.8
20260506164003 65 106 0.0 0.0 0.00 0.00 0.00 60 1006.9
20260506163504 65 264 0.0 0.0 0.00 0.00 0.00 61 1007.0
20260506163010 65 155 0.0 0.0 0.00 0.00 0.00 60 1007.0
20260506162504 65 171 0.0 0.0 0.00 0.00 0.00 61 1007.0
20260506162005 65 92 0.0 1.0 0.00 0.00 0.00 61 1007.1
20260506161505 65 86 0.0 1.0 0.00 0.00 0.00 62 1007.2
20260506161002 66 153 0.0 0.0 0.00 0.00 0.00 62 1007.2
20260506160506 66 106 0.0 2.0 0.00 0.00 0.00 62 1007.3
20260506160009 65 197 0.0 2.0 0.00 0.00 0.00 61 1007.3
20260506155504 65 298 0.0 10.0 0.00 0.00 0.00 62 1007.4
20260506155003 65 150 0.0 10.0 0.00 0.00 0.00 62 1007.4
20260506154526 65 71 0.0 0.0 0.00 0.00 0.00 61 1007.6
20260506154003 65 217 0.0 0.0 0.00 0.00 0.00 60 1007.8
20260506153503 65 92 0.0 1.0 0.00 0.00 0.00 59 1007.8
20260506153008 65 110 0.0 3.0 0.00 0.00 0.00 61 1007.8
20260506152504 65 168 0.0 3.0 0.00 0.00 0.00 61 1008.0
20260506152008 65 86 0.0 0.0 0.00 0.00 0.00 60 1008.0
20260506151514 65 66 0.0 0.0 0.00 0.00 0.00 61 1008.0
20260506151002 65 122 0.0 0.0 0.00 0.00 0.00 60 1008.0
20260506150503 65 72 0.0 13.0 0.00 0.00 0.00 61 1008.0
20260506150010 65 135 0.0 14.0 0.00 0.00 0.00 61 1008.2
20260506145505 65 257 0.0 14.0 0.00 0.00 0.00 61 1008.2
20260506145005 65 246 0.0 4.0 0.00 0.00 0.00 61 1008.0
20260506144511 65 133 0.0 8.0 0.00 0.00 0.00 60 1007.8
20260506144004 65 44 0.0 8.0 0.00 0.00 0.00 61 1007.9
20260506143506 65 172 0.0 4.0 0.00 0.00 0.00 62 1008.2
20260506143014 65 107 0.0 4.0 0.00 0.00 0.00 62 1008.2
20260506142504 65 289 0.0 1.0 0.00 0.00 0.00 61 1008.0
20260506142005 65 316 0.0 0.0 0.00 0.00 0.00 60 1008.0
20260506141509 65 294 0.0 5.0 0.00 0.00 0.00 59 1007.8
20260506141005 65 348 0.0 5.0 0.00 0.00 0.00 60 1007.9
20260506140503 65 80 0.0 3.0 0.00 0.00 0.00 58 1007.9
20260506140019 65 150 0.0 6.0 0.00 0.00 0.00 57 1008.0
20260506135503 64 161 0.0 7.0 0.00 0.00 0.00 56 1007.9
20260506135004 64 311 0.0 7.0 0.00 0.00 0.00 53 1007.7
20260506134511 64 97 0.0 1.0 0.00 0.00 0.00 54 1007.7
20260506134005 63 92 0.0 9.0 0.00 0.00 0.00 51 1007.8
20260506133504 63 301 0.0 9.0 0.00 0.00 0.00 51 1007.9
20260506133013 63 169 0.0 0.0 0.00 0.00 0.00 48 1007.9
20260506132510 63 126 0.0 0.0 0.00 0.00 0.00 50 1007.9
20260506132003 62 59 0.0 0.0 0.00 0.00 0.00 49 1007.9
20260506131517 62 132 0.0 0.0 0.00 0.00 0.00 49 1007.9
20260506131005 62 269 0.0 0.0 0.00 0.00 0.00 48 1007.9
20260506130505 62 86 0.0 8.0 0.00 0.00 0.00 48 1008.1
20260506130012 62 254 0.0 8.0 0.00 0.00 0.00 47 1008.2
20260506125503 62 177 2.0 8.0 0.00 0.00 0.00 47 1008.2
20260506125004 62 107 0.0 6.0 0.00 0.00 0.00 46 1008.2
20260506124512 62 92 0.0 0.0 0.00 0.00 0.00 45 1008.2
20260506124006 62 105 0.0 0.0 0.00 0.00 0.00 45 1008.2
20260506123505 62 78 0.0 0.0 0.00 0.00 0.00 45 1008.3
20260506123012 61 86 0.0 0.0 0.00 0.00 0.00 45 1008.2
20260506122506 61 121 0.0 0.0 0.00 0.00 0.00 44 1008.2
20260506122003 61 298 0.0 0.0 0.00 0.00 0.00 45 1008.2
20260506121512 61 250 0.0 0.0 0.00 0.00 0.00 43 1008.3
20260506121003 61 124 0.0 0.0 0.00 0.00 0.00 44 1008.3
20260506120504 61 115 0.0 0.0 0.00 0.00 0.00 45 1008.2
20260506120015 61 84 0.0 0.0 0.00 0.00 0.00 46 1008.5
20260506115504 61 20 0.0 0.0 0.00 0.00 0.00 46 1008.5
20260506115002 61 338 0.0 0.0 0.00 0.00 0.00 45 1008.5